Location: ?????????
(53.2086°N, 54.0693°E)
Time: 17:31:32
(UTC+00:00)

NOSS 2-2 (D) - Pass Details

Date: 08 December 2019
Orbit: 485 x 1724 km, 63.3° (Epoch: 19 January)

Event Time Altitude Azimuth Distance (km) Brightness Sun altitude
Rises 13:42:03 0° 252° (WSW) 2,584 8.8 -13.2°
Reaches altitude 10° 13:44:07 10° 260° (W) 1,756 7.3 -13.5°
Maximum altitude 13:47:46 41° 333° (NNW) 858 4.3 -14.0°
Enters shadow 13:50:52 17° 36° (NE) 1,639 5.2 -14.5°
